Location: Tel Aviv
(32.0670°N, 34.7670°E)
Time: 02:50:08
(UTC+02:00)

Transit 4A - Pass Details

Date: 12 December 2023
Orbit: 869 x 974 km, 66.8° (Epoch: 23 February)

Event Time Altitude Azimuth Distance (km) Brightness Sun altitude
Rises 19:19:16 0° 256° (WSW) 3,661 12.1 -33.5°
Reaches altitude 10° 19:23:16 10° 280° (W) 2,713 11.1 -34.3°
Maximum altitude 19:26:30 14° 311° (NW) 2,411 10.4 -35.0°
Drops below altitude 10° 19:29:43 10° 342° (NNW) 2,701 10.4 -35.7°
Enters shadow 19:29:51 10° 343° (NNW) 2,724 10.4 -35.7°
